Location: Alsip
(41.6689°N, 87.7387°W)
Time: 23:20:22
(UTC+00:00)

X-37B - Pass Details

Date: 31 July 2021
Orbit: 381 x 393 km, 45.0° (Epoch: 29 August)

Event Time Altitude Azimuth Distance (km) Brightness Sun altitude
Exits shadow 09:04:21 15° 156° (SSE) 1,131 2.7 -16.2°
Maximum altitude 09:04:54 16° 143° (SE) 1,106 2.8 -16.1°
Drops below altitude 10° 09:06:52 10° 103° (ESE) 1,394 3.8 -15.9°
Sets 09:09:29 0° 80° (E) 2,251 5.4 -15.5°
